When you browse on this site, cookies collect data to enhance your experience and personalize the content and advertising you see.
Visit our Privacy Policy to learn more. By continuing to use the site, you agree to this use of cookies and data.
  • en France
  • Liste des pays
  • À 7 jours
  • Température de l'eau
  • Carte météo
  • Widgets météo
  • user-avatar
    Se connecter

    Météo par heure à Abondant

    Ce jour, 21 Août, Mercredi

    Heure Température Précipitation Vent Pression Humidité
    00:00 +13°C° 0 mm 2 m/s 758 mmHg 81%
    01:00 +13°C° 0 mm 1 m/s 757 mmHg 82%
    02:00 +12°C° 0 mm 1 m/s 757 mmHg 83%
    03:00 +12°C° 0 mm 1 m/s 757 mmHg 84%
    04:00 +12°C° 0 mm 1 m/s 757 mmHg 82%
    05:00 +13°C° 0 mm 1 m/s 757 mmHg 81%
    06:00 +13°C° 0 mm 1 m/s 758 mmHg 79%
    07:00 +15°C° 0 mm 1 m/s 758 mmHg 71%
    08:00 +18°C° 0 mm 1 m/s 758 mmHg 63%
    09:00 +19°C° 0 mm 2 m/s 758 mmHg 55%
    10:00 +20°C° 0 mm 2 m/s 758 mmHg 51%
    11:00 +21°C° 0 mm 2 m/s 757 mmHg 48%
    12:00 +24°C° 0 mm 2 m/s 757 mmHg 44%
    13:00 +24°C° 0 mm 2 m/s 757 mmHg 42%
    14:00 +24°C° 0 mm 2 m/s 757 mmHg 40%
    15:00 +25°C° 0 mm 2 m/s 756 mmHg 38%
    16:00 +24°C° 0 mm 2 m/s 756 mmHg 42%
    17:00 +23°C° 0 mm 2 m/s 756 mmHg 46%
    18:00 +21°C° 0 mm 2 m/s 756 mmHg 50%
    19:00 +20°C° 0 mm 2 m/s 756 mmHg 51%
    20:00 +18°C° 0 mm 2 m/s 756 mmHg 52%
    21:00 +17°C° 0 mm 2 m/s 756 mmHg 53%
    22:00 +16°C° 0 mm 2 m/s 756 mmHg 54%
    23:00 +16°C° 0 mm 2 m/s 756 mmHg 54%

    Demain, 22 Août, Jeudi

    Heure Température Précipitation Vent Pression Humidité
    00:00 +15°C° 0 mm 1 m/s 756 mmHg 55%
    01:00 +15°C° 0 mm 1 m/s 756 mmHg 57%
    02:00 +15°C° 0 mm 1 m/s 756 mmHg 59%
    03:00 +14°C° 0 mm 1 m/s 755 mmHg 61%
    04:00 +14°C° 0 mm 1 m/s 756 mmHg 62%
    05:00 +15°C° 0 mm 1 m/s 756 mmHg 63%
    06:00 +15°C° 0 mm 1 m/s 756 mmHg 64%
    07:00 +18°C° 0 mm 1 m/s 756 mmHg 57%
    08:00 +20°C° 0 mm 1 m/s 756 mmHg 51%
    09:00 +22°C° 0 mm 1 m/s 757 mmHg 45%
    10:00 +24°C° 0 mm 2 m/s 757 mmHg 42%
    11:00 +25°C° 0 mm 2 m/s 756 mmHg 39%
    12:00 +26°C° 0 mm 2 m/s 756 mmHg 36%
    13:00 +26°C° 0 mm 2 m/s 756 mmHg 35%
    14:00 +27°C° 0 mm 2 m/s 756 mmHg 33%
    15:00 +27°C° 0 mm 2 m/s 755 mmHg 31%
    16:00 +26°C° 0 mm 2 m/s 755 mmHg 36%
    17:00 +25°C° 0 mm 2 m/s 755 mmHg 40%
    18:00 +24°C° 0 mm 2 m/s 755 mmHg 44%
    19:00 +21°C° 0 mm 2 m/s 755 mmHg 50%
    20:00 +19°C° 0 mm 2 m/s 756 mmHg 57%
    21:00 +18°C° 0 mm 3 m/s 756 mmHg 63%
    22:00 +17°C° 0 mm 3 m/s 756 mmHg 66%
    23:00 +16°C° 0 mm 2 m/s 756 mmHg 69%

    Après-demain, 23 Août, Vendredi

    Heure Température Précipitation Vent Pression Humidité
    00:00 +16°C° 0 mm 2 m/s 755 mmHg 71%
    01:00 +15°C° 0 mm 2 m/s 755 mmHg 73%
    02:00 +15°C° 0 mm 2 m/s 755 mmHg 74%
    03:00 +14°C° 0 mm 2 m/s 755 mmHg 75%
    04:00 +15°C° 0 mm 2 m/s 755 mmHg 74%
    05:00 +15°C° 0 mm 2 m/s 755 mmHg 73%
    06:00 +15°C° 0 mm 2 m/s 755 mmHg 73%
    07:00 +17°C° 0 mm 2 m/s 755 mmHg 65%
    08:00 +19°C° 0 mm 2 m/s 755 mmHg 58%
    09:00 +22°C° 0 mm 3 m/s 755 mmHg 50%
    10:00 +24°C° 0 mm 3 m/s 755 mmHg 47%
    11:00 +25°C° 0 mm 3 m/s 754 mmHg 44%
    12:00 +27°C° 0 mm 3 m/s 754 mmHg 40%
    13:00 +27°C° 0 mm 3 m/s 754 mmHg 38%
    14:00 +28°C° 0 mm 3 m/s 753 mmHg 36%
    15:00 +29°C° 0 mm 2 m/s 753 mmHg 34%
    16:00 +27°C° 0 mm 3 m/s 753 mmHg 39%
    17:00 +26°C° 0 mm 3 m/s 753 mmHg 45%
    18:00 +25°C° 0 mm 3 m/s 752 mmHg 50%
    19:00 +24°C° 0 mm 3 m/s 752 mmHg 54%
    20:00 +21°C° 0 mm 3 m/s 753 mmHg 58%
    21:00 +19°C° 0 mm 2 m/s 753 mmHg 63%
    22:00 +19°C° 0 mm 2 m/s 752 mmHg 66%
    23:00 +18°C° 0 mm 2 m/s 752 mmHg 69%

    24 Août, Samedi

    Heure Température Précipitation Vent Pression Humidité
    00:00 +18°C° 0 mm 2 m/s 752 mmHg 72%
    01:00 +17°C° 0 mm 2 m/s 752 mmHg 74%
    02:00 +17°C° 0 mm 2 m/s 751 mmHg 77%
    03:00 +16°C° 0 mm 2 m/s 751 mmHg 79%
    04:00 +17°C° 0 mm 2 m/s 751 mmHg 79%
    05:00 +18°C° 0 mm 1 m/s 751 mmHg 80%
    06:00 +18°C° 0 mm 1 m/s 750 mmHg 80%
    07:00 +19°C° 0 mm 2 m/s 751 mmHg 72%
    08:00 +23°C° 0 mm 2 m/s 751 mmHg 64%
    09:00 +25°C° 0 mm 2 m/s 751 mmHg 56%
    10:00 +27°C° 0 mm 2 m/s 751 mmHg 50%
    11:00 +28°C° 0 mm 2 m/s 750 mmHg 43%
    12:00 +29°C° 0 mm 2 m/s 750 mmHg 37%
    13:00 +30°C° 0 mm 2 m/s 750 mmHg 34%
    14:00 +31°C° 0 mm 1 m/s 749 mmHg 31%
    15:00 +32°C° 0 mm 1 m/s 749 mmHg 28%
    16:00 +30°C° 0 mm 1 m/s 749 mmHg 31%
    17:00 +29°C° 0 mm 1 m/s 749 mmHg 35%
    18:00 +28°C° 0 mm 1 m/s 748 mmHg 38%
    19:00 +26°C° 0 mm 1 m/s 749 mmHg 41%
    20:00 +25°C° 0 mm 2 m/s 749 mmHg 43%
    21:00 +23°C° 0 mm 2 m/s 749 mmHg 46%
    22:00 +23°C° 0 mm 2 m/s 749 mmHg 49%
    23:00 +21°C° 0 mm 2 m/s 749 mmHg 52%

    25 Août, Dimanche

    Heure Température Précipitation Vent Pression Humidité
    00:00 +21°C° 0 mm 1 m/s 748 mmHg 55%
    01:00 +21°C° 0 mm 1 m/s 748 mmHg 59%
    02:00 +20°C° 0 mm 1 m/s 748 mmHg 62%
    03:00 +20°C° 0 mm 1 m/s 748 mmHg 65%
    04:00 +20°C° 0 mm 1 m/s 748 mmHg 66%
    05:00 +20°C° 0 mm 1 m/s 748 mmHg 67%
    06:00 +20°C° 0 mm 1 m/s 748 mmHg 68%
    07:00 +23°C° 0 mm 1 m/s 748 mmHg 60%
    08:00 +25°C° 0 mm 1 m/s 748 mmHg 51%
    09:00 +28°C° 0 mm 2 m/s 749 mmHg 43%
    10:00 +29°C° 0 mm 2 m/s 748 mmHg 39%
    11:00 +31°C° 0 mm 2 m/s 748 mmHg 34%
    12:00 +32°C° 0 mm 2 m/s 748 mmHg 29%
    13:00 +33°C° 0 mm 1 m/s 748 mmHg 28%
    14:00 +34°C° 0 mm 1 m/s 748 mmHg 26%
    15:00 +34°C° 0 mm 1 m/s 748 mmHg 24%
    16:00 +33°C° 0 mm 1 m/s 748 mmHg 29%
    17:00 +31°C° 0 mm 1 m/s 747 mmHg 34%
    18:00 +30°C° 0 mm 2 m/s 747 mmHg 40%
    19:00 +28°C° 0 mm 2 m/s 748 mmHg 45%
    20:00 +26°C° 0 mm 2 m/s 748 mmHg 50%
    21:00 +24°C° 0 mm 2 m/s 748 mmHg 56%
    22:00 +23°C° 0 mm 2 m/s 748 mmHg 59%
    23:00 +21°C° 0 mm 2 m/s 748 mmHg 62%

    26 Août, Lundi

    Heure Température Précipitation Vent Pression Humidité
    00:00 +20°C° 0 mm 3 m/s 748 mmHg 66%
    01:00 +19°C° 0 mm 3 m/s 748 mmHg 68%
    02:00 +18°C° 0 mm 3 m/s 748 mmHg 71%
    03:00 +18°C° 0 mm 3 m/s 748 mmHg 73%
    04:00 +18°C° 0 mm 3 m/s 748 mmHg 76%
    05:00 +17°C° 0 mm 3 m/s 749 mmHg 79%
    06:00 +17°C° 0 mm 3 m/s 749 mmHg 82%
    07:00 +19°C° 0 mm 3 m/s 750 mmHg 75%
    08:00 +20°C° 0 mm 3 m/s 750 mmHg 67%
    09:00 +22°C° 0 mm 4 m/s 751 mmHg 60%
    10:00 +23°C° 0 mm 4 m/s 751 mmHg 57%
    11:00 +25°C° 0 mm 4 m/s 751 mmHg 55%
    12:00 +25°C° 0 mm 4 m/s 751 mmHg 52%
    13:00 +26°C° 0 mm 4 m/s 752 mmHg 49%
    14:00 +27°C° 0 mm 4 m/s 752 mmHg 46%
    15:00 +27°C° 0 mm 4 m/s 752 mmHg 43%
    16:00 +26°C° 0 mm 4 m/s 752 mmHg 48%
    17:00 +25°C° 0 mm 3 m/s 752 mmHg 53%
    18:00 +22°C° 0 mm 3 m/s 752 mmHg 58%
    19:00 +21°C° 0 mm 3 m/s 753 mmHg 62%
    20:00 +19°C° 0 mm 2 m/s 753 mmHg 67%
    21:00 +18°C° 0 mm 2 m/s 754 mmHg 71%
    22:00 +17°C° 0 mm 2 m/s 754 mmHg 72%
    23:00 +17°C° 0 mm 2 m/s 754 mmHg 74%
    Voir plus